Meteo pe oră la Dabrowno

Astăzi, 23 Aprilie, Vineri

Timp Temperatura Precipitaţii Vânt Presiune Umiditate
00:00 +1°C° 0 mm 3 m/s 736 mmHg 83%
01:00 0°C° 0 mm 3 m/s 736 mmHg 88%
02:00 0°C° 0 mm 3 m/s 736 mmHg 89%
03:00 0°C° 0 mm 3 m/s 736 mmHg 90%
04:00 -1°C° 0 mm 4 m/s 736 mmHg 91%
05:00 0°C° 0 mm 4 m/s 737 mmHg 86%
06:00 +1°C° 0 mm 4 m/s 737 mmHg 81%
07:00 +1°C° 0 mm 4 m/s 738 mmHg 77%
08:00 +3°C° 0.1 mm 5 m/s 738 mmHg 69%
09:00 +5°C° 0.1 mm 5 m/s 738 mmHg 62%
10:00 +6°C° 0.1 mm 5 m/s 738 mmHg 54%
11:00 +5°C° 0.3 mm 6 m/s 738 mmHg 58%
12:00 +5°C° 0.3 mm 7 m/s 738 mmHg 61%
13:00 +5°C° 0.3 mm 7 m/s 738 mmHg 65%
14:00 +4°C° 0.1 mm 7 m/s 738 mmHg 67%
15:00 +4°C° 0.1 mm 7 m/s 738 mmHg 68%
16:00 +3°C° 0.1 mm 7 m/s 738 mmHg 70%
17:00 +3°C° 0 mm 6 m/s 739 mmHg 72%
18:00 +2°C° 0 mm 5 m/s 739 mmHg 74%
19:00 +3°C° 0 mm 4 m/s 739 mmHg 77%
20:00 +1°C° 0 mm 4 m/s 739 mmHg 80%
21:00 +1°C° 0 mm 4 m/s 739 mmHg 82%
22:00 +1°C° 0 mm 3 m/s 739 mmHg 85%
23:00 +1°C° 0 mm 3 m/s 739 mmHg 87%

Mâine, 24 Aprilie, Sâmbătă

Timp Temperatura Precipitaţii Vânt Presiune Umiditate
00:00 0°C° 0 mm 3 m/s 739 mmHg 89%
01:00 0°C° 0 mm 3 m/s 739 mmHg 91%
02:00 0°C° 0 mm 3 m/s 739 mmHg 89%
03:00 0°C° 0 mm 3 m/s 739 mmHg 88%
04:00 0°C° 0 mm 3 m/s 739 mmHg 87%
05:00 +1°C° 0 mm 3 m/s 739 mmHg 81%
06:00 +2°C° 0 mm 3 m/s 739 mmHg 75%
07:00 +3°C° 0 mm 3 m/s 739 mmHg 69%
08:00 +5°C° 0 mm 4 m/s 739 mmHg 64%
09:00 +6°C° 0 mm 5 m/s 739 mmHg 58%
10:00 +7°C° 0 mm 5 m/s 739 mmHg 53%
11:00 +7°C° 0.1 mm 5 m/s 739 mmHg 54%
12:00 +7°C° 0.1 mm 5 m/s 738 mmHg 55%
13:00 +8°C° 0.1 mm 5 m/s 738 mmHg 56%
14:00 +8°C° 0.1 mm 5 m/s 738 mmHg 57%
15:00 +7°C° 0.1 mm 5 m/s 738 mmHg 58%
16:00 +7°C° 0.1 mm 5 m/s 738 mmHg 60%
17:00 +7°C° 0 mm 4 m/s 738 mmHg 63%
18:00 +6°C° 0 mm 4 m/s 738 mmHg 66%
19:00 +5°C° 0 mm 3 m/s 738 mmHg 69%
20:00 +4°C° 0 mm 3 m/s 738 mmHg 73%
21:00 +3°C° 0 mm 3 m/s 738 mmHg 78%
22:00 +2°C° 0 mm 3 m/s 738 mmHg 82%
23:00 +2°C° 0 mm 3 m/s 738 mmHg 85%

Poimâine, 25 Aprilie, Duminică

Timp Temperatura Precipitaţii Vânt Presiune Umiditate
00:00 +2°C° 0 mm 2 m/s 738 mmHg 88%
01:00 +2°C° 0 mm 2 m/s 738 mmHg 91%
02:00 +1°C° 0 mm 2 m/s 738 mmHg 90%
03:00 +2°C° 0 mm 1 m/s 738 mmHg 89%
04:00 +1°C° 0 mm 1 m/s 738 mmHg 88%
05:00 +2°C° 0 mm 1 m/s 738 mmHg 80%
06:00 +2°C° 0 mm 2 m/s 738 mmHg 73%
07:00 +3°C° 0 mm 2 m/s 739 mmHg 65%
08:00 +3°C° 0 mm 3 m/s 739 mmHg 56%
09:00 +4°C° 0 mm 3 m/s 739 mmHg 46%
10:00 +6°C° 0 mm 4 m/s 739 mmHg 37%
11:00 +6°C° 0 mm 4 m/s 738 mmHg 36%
12:00 +6°C° 0 mm 5 m/s 738 mmHg 35%
13:00 +7°C° 0 mm 5 m/s 738 mmHg 34%
14:00 +6°C° 0 mm 5 m/s 738 mmHg 37%
15:00 +5°C° 0 mm 6 m/s 738 mmHg 40%
16:00 +5°C° 0 mm 6 m/s 738 mmHg 43%
17:00 +5°C° 0.1 mm 5 m/s 738 mmHg 49%
18:00 +4°C° 0.1 mm 4 m/s 738 mmHg 55%
19:00 +2°C° 0.1 mm 3 m/s 738 mmHg 61%
20:00 +2°C° 0 mm 3 m/s 738 mmHg 63%
21:00 +2°C° 0 mm 2 m/s 738 mmHg 66%
22:00 +1°C° 0 mm 2 m/s 738 mmHg 69%
23:00 +1°C° 0 mm 2 m/s 738 mmHg 69%

26 Aprilie, Luni

Timp Temperatura Precipitaţii Vânt Presiune Umiditate
00:00 -1°C° 0 mm 2 m/s 738 mmHg 70%
01:00 -1°C° 0 mm 2 m/s 738 mmHg 71%
02:00 -1°C° 0 mm 2 m/s 737 mmHg 72%
03:00 -1°C° 0 mm 2 m/s 737 mmHg 73%
04:00 -2°C° 0 mm 2 m/s 737 mmHg 74%
05:00 +1°C° 0 mm 2 m/s 737 mmHg 69%
06:00 +1°C° 0 mm 3 m/s 737 mmHg 63%
07:00 +2°C° 0 mm 3 m/s 737 mmHg 57%
08:00 +3°C° 0 mm 3 m/s 737 mmHg 52%
09:00 +5°C° 0 mm 4 m/s 737 mmHg 48%
10:00 +6°C° 0 mm 4 m/s 737 mmHg 43%
11:00 +6°C° 0.1 mm 4 m/s 736 mmHg 44%
12:00 +6°C° 0.1 mm 4 m/s 736 mmHg 45%
13:00 +7°C° 0.1 mm 4 m/s 735 mmHg 46%
14:00 +7°C° 0.1 mm 4 m/s 735 mmHg 46%
15:00 +7°C° 0.1 mm 4 m/s 735 mmHg 46%
16:00 +7°C° 0.1 mm 4 m/s 734 mmHg 45%
17:00 +5°C° 0 mm 3 m/s 734 mmHg 48%
18:00 +4°C° 0 mm 3 m/s 734 mmHg 52%
19:00 +4°C° 0 mm 2 m/s 734 mmHg 55%
20:00 +4°C° 0 mm 1 m/s 734 mmHg 58%
21:00 +3°C° 0 mm 1 m/s 735 mmHg 61%
22:00 +1°C° 0 mm 0 m/s 735 mmHg 65%
23:00 +1°C° 0 mm 0 m/s 734 mmHg 66%

27 Aprilie, Marţi

Timp Temperatura Precipitaţii Vânt Presiune Umiditate
00:00 +2°C° 0 mm 1 m/s 734 mmHg 68%
01:00 +1°C° 0 mm 1 m/s 734 mmHg 69%
02:00 +1°C° 0 mm 1 m/s 734 mmHg 70%
03:00 +1°C° 0 mm 1 m/s 734 mmHg 71%
04:00 +1°C° 0 mm 1 m/s 733 mmHg 72%
05:00 +3°C° 0 mm 1 m/s 733 mmHg 66%
06:00 +4°C° 0 mm 1 m/s 733 mmHg 61%
07:00 +5°C° 0 mm 2 m/s 733 mmHg 55%
08:00 +6°C° 0 mm 2 m/s 733 mmHg 50%
09:00 +8°C° 0 mm 3 m/s 733 mmHg 44%
10:00 +9°C° 0 mm 3 m/s 733 mmHg 39%
11:00 +10°C° 0 mm 4 m/s 732 mmHg 39%
12:00 +10°C° 0 mm 4 m/s 731 mmHg 38%
13:00 +11°C° 0 mm 4 m/s 731 mmHg 38%
14:00 +11°C° 0 mm 4 m/s 730 mmHg 40%
15:00 +11°C° 0 mm 4 m/s 730 mmHg 42%
16:00 +10°C° 0 mm 5 m/s 729 mmHg 45%
17:00 +9°C° 0 mm 5 m/s 729 mmHg 49%
18:00 +8°C° 0 mm 5 m/s 729 mmHg 53%
19:00 +7°C° 0 mm 5 m/s 728 mmHg 58%
20:00 +6°C° 0 mm 5 m/s 728 mmHg 59%
21:00 +6°C° 0 mm 4 m/s 727 mmHg 61%
22:00 +6°C° 0 mm 4 m/s 727 mmHg 63%
23:00 +5°C° 0.1 mm 3 m/s 727 mmHg 68%

28 Aprilie, Miercuri

Timp Temperatura Precipitaţii Vânt Presiune Umiditate
00:00 +5°C° 0.1 mm 3 m/s 726 mmHg 72%
01:00 +6°C° 0.1 mm 2 m/s 726 mmHg 77%
02:00 +6°C° 0.1 mm 2 m/s 725 mmHg 81%
03:00 +5°C° 0.1 mm 2 m/s 725 mmHg 86%
04:00 +4°C° 0.1 mm 3 m/s 725 mmHg 90%
05:00 +5°C° 0.3 mm 2 m/s 725 mmHg 91%
06:00 +6°C° 0.3 mm 2 m/s 724 mmHg 92%
07:00 +6°C° 0.3 mm 2 m/s 724 mmHg 93%
08:00 +6°C° 0.3 mm 2 m/s 724 mmHg 92%
09:00 +6°C° 0.3 mm 2 m/s 724 mmHg 91%
10:00 +7°C° 0.3 mm 2 m/s 724 mmHg 90%
11:00 +7°C° 0.3 mm 2 m/s 724 mmHg 91%
12:00 +7°C° 0.3 mm 3 m/s 724 mmHg 92%
13:00 +7°C° 0.3 mm 3 m/s 724 mmHg 93%
14:00 +6°C° 0.4 mm 4 m/s 725 mmHg 93%
15:00 +6°C° 0.4 mm 4 m/s 725 mmHg 92%
16:00 +6°C° 0.4 mm 4 m/s 725 mmHg 91%
17:00 +6°C° 0 mm 4 m/s 725 mmHg 92%
18:00 +5°C° 0 mm 4 m/s 726 mmHg 93%
19:00 +5°C° 0 mm 4 m/s 726 mmHg 94%
20:00 +4°C° 0 mm 4 m/s 727 mmHg 93%
21:00 +4°C° 0 mm 4 m/s 727 mmHg 92%
22:00 +4°C° 0 mm 4 m/s 727 mmHg 92%
23:00 +4°C° 0 mm 4 m/s 728 mmHg 91%
Arată mai mult

Formular de consimțământ

Meteoprog și furnizorii noștri de servicii pot stoca și accesa date personale, precum cookies, identificatori de dispozitiv sau alte tehnologii similare pe dispozitivul dumneavoastră și procesa astfel de date pentru a personaliza conținutul și reclamele, dar și pentru a oferi caracteristici de social media și pentru a analiza traficul.

  • Stocarea și/sau accesarea informațiilor pe dispozitivul dumneavoastră

    Cookies, identificatori de dispozitiv sau alte informații pot fi stocate sau accesate pe dispozitiv în scopurile indicate mai sus.

  • Reclame și conținut personalizat, evaluarea reclamelor și a conținutului, informații despre audiențe și dezvoltarea produselor

    Reclamele și conținutul pot fi personalizate pe baza unui profil. Pot fi adăugate date suplimentare pentru a personaliza mai bine reclamele și conținutul. Performanța reclamelor și conținutului poate fi măsurată. Pot fi obținute informații despre utilizatorii care au văzut reclamele și conținutul. Aceste date pot fi utilizate pentru a dezvolta sau îmbunătăți experiența utilizatorilor, sistemele și software-ul.

Dând clic pe ‘Sunt de acord’, permiteți utilizarea cookie-urilor menționate, a identificatorilor de dispozitiv, balizelor web sau altor tehnologii similare. Setările pot fi modificate din browser-ul dispozitivului dumneavoastră.

În anumite scopuri, interesele legitime pot prima asupra consimțământului. Puteți citi mai multe informații în acest sens în Politica privind Confidențialitatea Datelor și Cookie.